{"data":{"norad_id":62291,"intl_designator":"2024-238B","name":"GJZ 02","alt_names":[],"object_type":"PAYLOAD","status":"ACTIVE","operator":null,"country":"PRC","launch_date":"2024-12-12","launch_site_code":"JSC","launch_vehicle":null,"mission":null,"orbit_class":"UNKNOWN","rcs_meters":null,"size_class":null,"mass_kg":null,"dimensions":null,"purposes":[],"wikipedia_slug":null,"has_3d_model":false,"image_url":null,"decayed_at":null,"tle_current":{"epoch":"2026-09-22T20:12:56.345184Z","epoch_age_seconds":110361,"freshness":"FRESH","line1":"1 62291U 24238B   26265.84231881 -.00000059  00000+0  62538-4 0  9997","line2":"2 62291  59.9191 315.2349 0007029  86.5403 273.6409 13.75214454 89719","mean_motion":13.75214454,"eccentricity":0.0007029,"inclination_deg":59.9191,"raan_deg":315.2349,"arg_perigee_deg":86.5403,"mean_anomaly_deg":273.6409,"bstar":6.2538e-5,"rev_number":8971,"period_min":104.71094132348,"perigee_km":975.73697283243,"apogee_km":986.08232060839,"semimajor_km":7359.0466467204,"source":"CELESTRAK","updated_at":"2026-09-23T09:00:21.346173Z"}}}